Regional Weather Roundup
Issued by NWS

Home | Current Version | Previous Version | Text Only | Print | Product List | Glossary Off
Versions: 1 2 3 4 5 6 7 8 9 10 11 12 13 14 15 16 17 18 19 20 21 22 23 24 25 26 27 28 29 30 31 32 33 34 35 36 37 38 39 40 41 42 43 44 45 46 47 48 49 50

000
ASUS43 KIND 060959
RWRIN

WEATHER ROUNDUP FOR INDIANA
NATIONAL WEATHER SERVICE INDIANAPOLIS IN
500 AM EST FRI MAR 06 2015

NOTE: "FAIR" INDICATES FEW OR NO CLOUDS BELOW 12,000 FEET WITH NO
SIGNIFICANT WEATHER AND/OR OBSTRUCTIONS TO VISIBILITY.

* - STATION DOES NOT REPORT WEATHER SUCH AS PRECIPITATION OR FOG.

+ - STATION NOT QUALITY CONTROLLED BY THE NATIONAL WEATHER SERVICE.
    USE DATA WITH CAUTION...ESPECIALLY DEWPOINT AND RELATIVE
    HUMIDITY OBSERVATIONS.

INZ001>003-010>013-019-020-061100-
NORTHWEST INDIANA

CITY           SKY/WX    TMP DP  RH WIND       PRES   REMARKS
MONTICELLO +   PTCLDY    -3  -5  87 S3        30.51F
VALPARAISO     NOT AVBL

$$

LMZ046-743>745-061100-
SOUTHERN LAKE MICHIGAN

STATION/POSITION TIME  TEMP WIND        PRES
                       AIR  DIR/SP/G
                 (UTC) (F)  (DEG/KT/KT) (MB)
MICHIGAN CITY    0900    6  180/  9/ 11   N/A

$$

INZ004-005-014>016-021>024-061100-
NORTH CENTRAL INDIANA

CITY           SKY/WX    TMP DP  RH WIND       PRES   REMARKS
GOSHEN         PTCLDY     1  -5  75 S6        30.49R WCI -10
SOUTH BEND     PTCLDY     1  -5  75 SW6       30.48F WCI -10

$$

INZ006>009-017-018-025>027-061100-
NORTHEAST INDIANA

CITY           SKY/WX    TMP DP  RH WIND       PRES   REMARKS
ANGOLA *+      CLEAR     -6 -20  49 CALM      30.45S
FORT WAYNE     MOCLDY     0  -5  79 SW5       30.51S WCI -10

$$

INZ028-029-035-036-043>045-051>053-061100-
WEST CENTRAL INDIANA

CITY           SKY/WX    TMP DP  RH WIND       PRES   REMARKS
CRAWFORDSVL +  PTCLDY    -8 -14  73 SE6       30.51F WCI -21
GREENCASTLE +  PTCLDY     1  -4  78 CALM      30.53F
LAFAYETTE      PTCLDY    -3  -6  87 CALM      30.53F
TERRE HAUTE    MOCLDY    -5  -9  83 CALM      30.56S

$$

INZ030>032-037>040-046>048-054>057-064-065-061100-
CENTRAL INDIANA

CITY           SKY/WX    TMP DP  RH WIND       PRES   REMARKS
FRANKFORT +    PTCLDY   -13 -18  78 SE3       30.52F
GREENWOOD *+   CLEAR      3  -2  78 CALM      30.54R
INDIANAPOLIS   CLEAR      3  -3  76 W3        30.52S
-EAGLE CREEK   CLEAR      2  -2  83 CALM      30.53R
KOKOMO *+        N/A    N/A N/A N/A MISG        N/A
MT COMFORT *+  PTCLDY    -4 -13  65 S3        30.52S
SHELBYVILLE    HAZE       3  -3  76 CALM      30.53S VSB 1

$$

INZ033-034-041-042-049-050-058-059-061100-
EAST CENTRAL INDIANA

CITY           SKY/WX    TMP DP  RH WIND       PRES   REMARKS
MUNCIE         PTCLDY     4  -1  80 CALM      30.51S

$$

INZ060-061-067>069-081>083-085>088-061100-
SOUTHWEST INDIANA

CITY           SKY/WX    TMP DP  RH WIND       PRES   REMARKS
EVANSVILLE     FAIR       0  -4  83 CALM      30.59S
HUNTINGBURG *+ PTCLDY     3   0  85 N3        30.56F

$$

INZ062-063-066-070>080-084-089>092-061100-
SOUTH CENTRAL AND SOUTHEAST INDIANA

CITY           SKY/WX    TMP DP  RH WIND       PRES   REMARKS
BLOOMINGTON    PTCLDY     0  -4  83 CALM      30.53F
SEYMOUR +        N/A      1  -2  85 CALM      30.56S HAZE

$$



USA.gov is the U.S. government's official web portal to all federal, state and local government web resources and services.